Regional Weather Roundup
Issued by NWS

Home | Current Version | Previous Version | Text Only | Print | Product List | Glossary On
Versions: 1 2 3 4 5 6 7 8 9 10 11 12 13 14 15 16 17 18 19 20 21 22 23 24 25 26 27 28 29 30 31 32 33 34 35 36 37 38 39 40 41 42 43 44 45 46 47 48 49 50
000
ASUS43 KTOP 202359
RWRKS

WEATHER ROUNDUP FOR KANSAS
NATIONAL WEATHER SERVICE GOODLAND KS
700 PM CDT MON OCT 20 2014

NOTE:  "FAIR" INDICATES FEW OR NO CLOUDS BELOW 12,000 FEET WITH NO
SIGNIFICANT WEATHER AND/OR OBSTRUCTIONS TO VISIBILITY.

KSZ001>006-013>018-027>032-041>047-210100-
NORTHWEST KANSAS

CITY           SKY/WX    TMP DP  RH WIND       PRES   REMARKS
GOODLAND       CLEAR     64  39  39 S9        30.10S
6HR MIN TEMP:  64; 6HR MAX TEMP:  76;

HAYS           CLEAR     66  45  45 SE8       30.07S
HILL CITY      CLEAR     68  40  35 E5        30.07S
6HR MIN TEMP:  68; 6HR MAX TEMP:  80;

RUSSELL        CLEAR     66  46  48 E7        30.05S
6HR MIN TEMP:  66; 6HR MAX TEMP:  79;

$$

KSZ061>065-074>080-084>089-210100-
SOUTHWEST KANSAS

CITY           SKY/WX    TMP DP  RH WIND       PRES   REMARKS
DODGE CITY     CLEAR     65  44  46 SE7       30.08S
6HR MIN TEMP:  65; 6HR MAX TEMP:  78;

ELKHART          N/A     68  50  52 E10         N/A
GARDEN CITY    CLEAR     66  43  43 SE7       30.08S
6HR MIN TEMP:  66; 6HR MAX TEMP:  77;

GREAT BEND     CLEAR     70  45  40 E5        30.07R
LIBERAL        CLEAR     72  52  49 E8        30.09S
$$

KSZ066>073-081>083-090>101-210100-
SOUTHEAST KANSAS

CITY           SKY/WX    TMP DP  RH WIND       PRES   REMARKS
CHANUTE        CLEAR     69  47  45 NE5       30.03R
6HR MIN TEMP:  69; 6HR MAX TEMP:  79;

COFFEYVILLE    CLEAR     68  58  70 CALM      30.02R
6HR MIN TEMP:  68; 6HR MAX TEMP:  79;

HUTCHINSON     CLEAR     65  45  48 NE5       30.05S
6HR MIN TEMP:  65; 6HR MAX TEMP:  81;

NEWTON         CLEAR     66  45  45 N6        30.07S
PARSONS        CLEAR     64  57  78 CALM      30.03S
6HR MIN TEMP:  64; 6HR MAX TEMP:  79;

WICHITA INTL   CLEAR     74  44  34 E3        30.03S
6HR MIN TEMP:  74; 6HR MAX TEMP:  82;

WICHITA JABRA  CLEAR     71  45  39 NE3       30.04R
6HR MIN TEMP:  69; 6HR MAX TEMP:  80;

WINFIELD       CLEAR     72  51  47 E3        30.04R
6HR MIN TEMP:  72; 6HR MAX TEMP:  80;

$$

KSZ007>012-019>026-033>040-048>060-102>105-210100-
NORTHEAST KANSAS

CITY           SKY/WX    TMP DP  RH WIND       PRES   REMARKS
CONCORDIA      CLEAR     65  45  48 CALM      30.05S
6HR MIN TEMP:  65; 6HR MAX TEMP:  77;

EMPORIA        CLEAR     68  45  43 NE6       30.04R
6HR MIN TEMP:  68; 6HR MAX TEMP:  78;

LAWRENCE       CLEAR     63  46  54 CALM      30.04S HAZE
6HR MIN TEMP:  63; 6HR MAX TEMP:  76;

MANHATTAN      CLEAR     65  43  44 NW5       30.04S
6HR MIN TEMP:  65; 6HR MAX TEMP:  77;

OLATHE IND     CLEAR     61  46  57 N5        30.05R
6HR MIN TEMP:  60; 6HR MAX TEMP:  74;

OLATHE EXE     CLEAR     67  44  43 N3        30.03S
6HR MIN TEMP:  67; 6HR MAX TEMP:  75;

SALINA         CLEAR     70  47  43 E5        30.05S
6HR MIN TEMP:  69; 6HR MAX TEMP:  79;

TOPEKA BILLARD CLEAR     63  46  54 N3        30.04S
6HR MIN TEMP:  63; 6HR MAX TEMP:  76;

TOPEKA FORBES  CLEAR     64  44  48 CALM      30.04S
6HR MIN TEMP:  64; 6HR MAX TEMP:  76;

$$


USA.gov is the U.S. government's official web portal to all federal, state and local government web resources and services.